DECAYED

COSMOS 2251 DEB, 36064 (Decayed)

Orbit data source: Space-Track

COSMOS 2251 DEB, 36064 was space debris in LEO originally from a launch on Wed, 16 Jun 1993 UTC launched from the Plesetsk Missile And Space Complex (PKMTR). The debris from Iridium 33, an American commercial communications satellite, has been tracked extensively since its accidental collision with the defunct Russian satellite Cosmos 2251 in 2009. This event, occurring at high speed in low Earth orbit (LEO), generated thousands of pieces of space debris, significantly increasing the risk of further collisions. The Iridium 33 debris cloud has impacted space traffic management and orbital debris mitigation strategies, making it a subject of ongoing study in space situational awareness.

Not visible in the next 10 days
Identifier
36064, 1993-036AYB
Orbit
Decayed
Country
Flag of CISCIS
Related business
Manufacturer
Unknown
Mission
Decayed spacecraft
Bus & Motor
Unknown
Mass
Unknown
Launch date (UTC)
1993-06-16 (33 years ago)
Launch vehicle
Unknown
Launch site
Plesetsk Missile And Space Complex (PKMTR)
Object type
Payload
Rocket body
Debris
Shape & HBR
Unknown shape, 0.1 m
Radar Cross Section
Small (<0.1 m²)

Expand to show TLE details & history
Last TLE update: 5 months ago

TLE from 5 months ago
0 COSMOS 2251 DEB
1 36064U 93036AYB 25258.99223478  .00107593  00000-0  52375-2 0  9995
2 36064  73.8178 161.2149 0014776 121.4715 238.7926 15.17745820644062
Epoch: 2025-09-15T23:48Z
TLE epoch observation values (Epoch: 2025-09-15T23:48:49.084Z)
Latitude
-0.00009°
Longitude
168.82142°
Altitude
520.639 km
Speed
7.6 km/s
True Right ascension
10h 44m 51s
True Declination
0° 00' 00"
Sunlit
Object was in daylight at epoch
Visualization orbit readout
Latitude
Unknown
Longitude
Unknown
Altitude
Unknown
Speed
Unknown
Apparent Right ascension
Unknown
Apparent Declination
Unknown
Sunlit
N/A
Visualization observer readout
Local Sidereal Time
10:52:56
Azimuth
Unknown
Elevation
Unknown
Doppler factor
Unknown
Orbital elements
Apogee altitude
520.387 km
Perigee altitude
500.031 km
Semi-major axis
6,888.346 km
Eccentricity
0.00148
Inclination
73.8178°
RAAN
161.2149°
Arg. of periapsis
121.4715°
True anomaly
238.64792°
Mean anomaly
238.7926°
Eccentric anomaly
238.72025°
Mean motion
3.79639 °/min
Orbital period
94.83 mins
BSTAR
0.0052375
Loading maneuver chart data...
Computing Atmospheric mass density...

Documentation

Showing up to 5 results
|